Regional Weather Roundup
Issued by NWS

Home | Current Version | Previous Version | Text Only | Print | Product List | Glossary On
Versions: 1 2 3 4 5 6 7 8 9 10 11 12 13 14 15 16 17 18 19 20 21 22 23 24 25 26 27 28 29 30 31 32 33 34 35 36 37 38 39 40 41 42 43 44 45 46 47 48 49 50
000
ASUS42 KTBW 210516
RWRFL
FLORIDA REGIONAL WEATHER ROUNDUP
NATIONAL WEATHER SERVICE TAMPA BAY RUSKIN FL
1200 AM EST SAT JAN 21 2017

NOTE: "FAIR" INDICATES FEW OR NO CLOUDS BELOW 12,000 FEET WITH NO
SIGNIFICANT WEATHER AND/OR OBSTRUCTIONS TO VISIBILITY.

FLZ001>010-012>015-112-114-115-210600-
PANHANDLE FLORIDA

CITY           SKY/WX    TMP DP  RH WIND       PRES   REMARKS
PENSACOLA      CLOUDY    70  66  87 S9        29.83F
PENSACOLA NAS  CLOUDY    69  67  93 S10       29.82F
MILTON NAS     LGT RAIN  68  67  96 S10       29.84
CRESTVIEW      CLOUDY    71  69  93 S6        29.85F
DUKE FIELD     MOCLDY    69  67  94 S8        29.84S
VALPARAISO     MOCLDY    69  67  93 S9        29.85F
MARY ESTHER    CLEAR     68  60  74 S10       29.83F
PANAMA CITY    LGT RAIN  69  66  90 SE12      29.87F
TYNDALL AFB    RAIN      68  67  96 SW13      29.91R FOG
APALACHICOLA   LGT RAIN  71  71 100 S7        29.90F

STATION/POSITION SKY/WX   TEMP    WIND        PRES    WAVE   SWELL
                          AIR SEA DIR/SP/G            HT/PER HT/PER
                          (F)     (DEG/KT/KT) (MB)    (FT/S) (FT/S)
30.1N   87.6W              69 66  160/ 12/ 14 1010.0S   3/ 6   2/ 6
28.8N   86.0W              76 75              1012.5F   4/ 6
PANAMA CITY BEAC           68 67  170/ 14/ 15 1012.3R
TOWER C                    73     190/ 14/ 14 1013.3S
28.5N   84.5W              75 73  200/ 14/ 16 1013.5F   3/ 5

$$
FLZ011-016>038-118-127-128-134-139-239-210600-
NORTH FLORIDA

CITY           SKY/WX    TMP DP  RH WIND       PRES   REMARKS
MARIANNA       CLOUDY    70  70 100 S7        29.86F
TALLAHASSEE    CLOUDY    71  70  96 S8        29.91F
PERRY          CLOUDY    69  68  96 S5        29.95S
CROSS CITY     CLOUDY    68  66  94 S6        29.96S FOG
LAKE CITY      CLOUDY    66  66 100 SW3       29.96S
GAINESVILLE    MOCLDY    66  63  90 CALM      29.97R FOG
WILLISTON      FOG       66  66 100 CALM      29.97S VSB 1/2
PALATKA        FAIR      63  63 100 SW3       29.97S
MAYPORT NAS    CLEAR     67  63  87 SW6       29.95S
JACKSONVILLE   PTCLDY    64  63  96 W5        29.95R
JAX NAS        PTCLDY    69  65  86 S3        29.96S
FERNANDINA BEA FAIR      68  64  88 SW3       29.94S
ST AUGUSTINE   CLEAR     68  63  84 SW6       29.97S

STATION/POSITION SKY/WX   TEMP    WIND        PRES    WAVE   SWELL
                          AIR SEA DIR/SP/G            HT/PER HT/PER
                          (F)     (DEG/KT/KT) (MB)    (FT/S) (FT/S)
SHELL POINT      NOT AVBL
KEATON BEACH               68     160/ 11/ 12 1013.7F
CEDAR KEY                  68     200/ 11/ 12 1015.1R
FERNANDINA                 68 67  200/  3/  5 1014.7R
30.7N   81.3W                 64                N/A     2/13   2/13
MAYPORT                    69 65  210/  4/  5 1014.5F
31.4N   80.9W              64 61  170/  6/  8 1013.4    2/ 5   2/ 5
ST AUGUSTINE               67 63  230/  4/  5 1015.3F

$$
FLZ040-043>046-052-053-057-058-063-144-210600-
INTERIOR CENTRAL FLORIDA

CITY           SKY/WX    TMP DP  RH WIND       PRES   REMARKS
OCALA          CLEAR     64  61  88 S3        29.98S
THE VILLAGES     N/A     64  64 100 CALM      29.89S
LEESBURG       CLEAR     67  63  87 SW7       29.99S
SANFORD        CLEAR     68  62  81 SW5       29.98S
ORLANDO EXEC   CLEAR     69  63  81 W6        29.98S
ORLANDO INTL   PTCLDY    66  61  84 SW5       29.99S
KISSIMMEE      PTCLDY    66  63  90 SW3       30.00S
WINTER HAVEN   CLEAR     66  62  87 S3        30.01R
LAKELAND       CLEAR     63  63 100 S3        30.00S
BARTOW         FAIR      61 N/A N/A CALM      30.00F
OKEECHOBEE     CLEAR     55  55 100 CALM      30.01S

$$
FLZ041-047-054-059-064-141-147-210600-
EAST CENTRAL FLORIDA

CITY           SKY/WX    TMP DP  RH WIND       PRES   REMARKS
DAYTONA BEACH  CLEAR     64  64 100 CALM      29.98R
DELAND         CLEAR     64  63  94 CALM      29.97F FOG
JFK SPACE CTR  PTCLDY    65  60  83 CALM      29.97S
CAPE CANAVERAL PTCLDY    65  59  81 CALM      29.97S
PATRICK AFB    CLEAR     68  62  80 SW7       29.98S
MELBOURNE      CLEAR     66  61  84 SW7       29.99S
VERO BEACH     PTCLDY    66  59  78 SW7       30.00S
FT PIERCE      PTCLDY    60  57  89 CALM      30.00S
STUART         PTCLDY    70  63  78 SW3       30.01S

STATION/POSITION SKY/WX   TEMP    WIND        PRES    WAVE   SWELL
                          AIR SEA DIR/SP/G            HT/PER HT/PER
                          (F)     (DEG/KT/KT) (MB)    (FT/S) (FT/S)
TRIDENT PIER     NOT AVBL
28.4N   80.5W                 70                N/A     2/11
27.5N   80.2W                 76                N/A     2/10   2/11

$$
FLZ050-056-061-142-242-148-248-149-249-151-251-155-255-
160-260-210600-
WEST CENTRAL FLORIDA

CITY           SKY/WX    TMP DP  RH WIND       PRES   REMARKS
CRYSTAL RIVER  FAIR      64  63  94 CALM      29.98S
INVERNESS      FAIR      63  63 100 CALM      29.99S
BROOKSVILLE    CLEAR     64  63  96 S5        29.99S FOG
CLEARWATER AIR FAIR      66  66 100 S5        29.98S
ST PETE CLEARW CLEAR     67  65  93 S7        29.98S
TAMPA INTL     PTCLDY    69  66  90 S5        29.99S
TAMPA EXEC     CLEAR     63  61  94 CALM      30.00S FOG
PLANT CITY     CLEAR     68  66  94 S3        30.01F
MACDILL AFB    CLEAR     66  66 100 W5        29.99S
PETER O KNIGHT MOCLDY    70  70 100 S7        29.99F
ST PETERSBURG  CLEAR     67  66  97 S5        29.97S
SARASOTA       CLEAR     65  63  93 SE6       29.98S
VENICE           N/A     70  68  94 S8        30.00S

STATION/POSITION SKY/WX   TEMP    WIND        PRES    WAVE   SWELL
                          AIR SEA DIR/SP/G            HT/PER HT/PER
                          (F)     (DEG/KT/KT) (MB)    (FT/S) (FT/S)
27.3N   84.2W                 79                N/A     3/ 5
CLEARWATER BEACH              68  160/  6/  9 1015.3F
MIDDLE TAMPA BAY           68     180/  7/  8 1015.7S
VENICE                     71 70  150/  9/ 11 1015.4R

$$
FLZ066-069-070-075>078-162-262-165-265-210600-
SOUTHWEST FLORIDA AND KEYS

CITY           SKY/WX    TMP DP  RH WIND       PRES   REMARKS
PUNTA GORDA    PTCLDY    65  64  97 S6        30.02S
FT MYERS       PTCLDY    66  64  93 CALM      30.00S
SOUTHWEST INTL CLEAR     65  63  93 CALM      30.00F
NAPLES         CLEAR     66  65  96 CALM      30.00S
MARCO ISLAND   CLEAR     43 N/A N/A SE5       30.01S WCI  40
MARATHON       CLEAR     73  63  70 CALM      30.01S
KEY WEST NAS   CLEAR     70  64  81 SE7       30.00F
KEY WEST INTL  CLEAR     75  65  70 SE7       30.01S

STATION/POSITION SKY/WX   TEMP    WIND        PRES    WAVE   SWELL
                          AIR SEA DIR/SP/G            HT/PER HT/PER
                          (F)     (DEG/KT/KT) (MB)    (FT/S) (FT/S)
NAPLES                        71              1015.9F
26.0N   85.6W              76 76  150/ 14/ 16 1014.2F   2/ 5   2/ 6
DRY TORTUGAS               76     150/  9/ 10 1015.7F
SAND KEY                   76     150/ 11/ 12 1016.5F
LONG KEY                   74 75  170/  5/  5 1016.5R
MOLASSES REEF              76 76  180/  4/  6 1016.6

$$
FLZ067-068-071>074-168-172>174-210600-
SOUTHEAST FLORIDA

CITY           SKY/WX    TMP DP  RH WIND       PRES   REMARKS
W PALM BEACH   PTCLDY    69  64  84 SW6       30.01S
FT LAUDER-EXEC CLEAR     69  61  75 CALM      30.00F
FT LAUDERDALE  CLEAR     70  63  78 W3        30.00F
POMPANO BEACH  CLEAR     71  63  75 SW3       30.01S
PEMBROKE PINES CLEAR     67  61  81 CALM      30.02F
OPA LOCKA      CLEAR     68  62  81 CALM      30.01F
MIAMI          PTCLDY    72  63  73 CALM      30.01F
WEST KENDALL   CLEAR     65  61  87 CALM      30.01F
HOMESTEAD      CLEAR     63  63 100 CALM      30.00F

STATION/POSITION SKY/WX   TEMP    WIND        PRES    WAVE   SWELL
                          AIR SEA DIR/SP/G            HT/PER HT/PER
                          (F)     (DEG/KT/KT) (MB)    (FT/S) (FT/S)
PORT EVERGLADES            72     220/  3/  5 1016.1F
VIRGINIA KEY               72 80  270/  3/  4 1016.5F
LAKE WORTH                 72 76  250/  5/  8 1015.9R
FOWEY ROCKS                74 76  200/  7/  8 1017.0R

$$




USA.gov is the U.S. government's official web portal to all federal, state and local government web resources and services.